AEHF-2 (USA 235)

Last updated on Mon Oct 14 2024 00:02:39 GMT+0000 (Coordinated Universal Time)

1 38254U 12019A 24287.26023072 -.00000131 00000+0 00000+0 0 9994 2 38254 5.2304 61.1682 0002872 131.6089 266.7444 1.00273292 851
UTC large
Height (km)
Speed (km/s)
/
Latitude / Longitude
Inclination (degrees)
Orbital Period (minutes)
Azimuth
Elevation
Range (km)
Doppler Factor

Next 0 passes for location: London (51.5072 / 0.1276)

Sorry there are no passes over London.